GFSNW_sfc_rhum_105.txt.gz
RH
71 67 66 60 62 69 81 92 93 67 69 96 98 91 48 46 37 38 48 59 68 88 95 90 99 97 82 69 83 94 73 78 72 56 58 51 57 65 79 90 99 99 98 99
68 69 66 59 60 70 93 92 85 69 76 96 93 52 42 41 44 43 49 66 65 83 100 98 91 89 61 64 72 82 83 72 85 92 65 90 83 58 61 64 82 99 98 99
64 69 64 60 60 68 93 94 97 84 84 82 74 64 57 58 43 39 42 48 59 75 96 74 80 82 62 66 64 76 78 79 92 96 98 74 80 70 76 93 94 93 99 99
64 66 63 60 59 69 93 94 91 68 96 93 66 62 63 67 68 37 40 52 49 60 97 74 79 66 68 66 72 77 86 99 97 89 80 78 94 96 92 80 77 100 99 98
67 67 65 60 62 69 98 93 92 66 62 50 55 64 65 56 40 44 48 51 45 51 66 69 72 63 81 94 83 86 82 99 100 98 90 81 98 80 57 80 94 94 93 99
64 66 62 60 62 72 86 70 69 76 74 58 66 64 42 42 43 43 34 41 52 56 57 52 51 50 64 74 80 79 87 92 92 97 54 61 95 80 73 76 71 72 95 98
67 65 63 62 61 69 90 83 77 89 94 74 43 36 38 40 39 48 41 42 57 51 45 49 52 54 68 70 57 58 64 71 75 72 66 94 89 68 74 84 80 69 74 87
66 66 68 64 62 68 84 96 89 95 95 63 46 42 48 52 49 46 45 49 49 52 60 73 68 76 70 53 46 46 48 67 82 85 92 86 67 66 78 86 96 78 78 79
70 71 71 70 65 69 90 95 88 89 97 87 56 51 55 66 71 65 56 49 50 63 72 81 84 83 62 79 69 41 54 66 82 82 84 96 79 73 62 61 95 92 78 84
72 71 71 72 68 70 86 96 88 91 97 73 66 75 76 59 65 77 70 66 77 67 94 94 90 92 54 79 73 78 80 85 89 89 94 82 86 72 61 80 98 98 90 85
73 75 74 70 67 70 86 97 91 92 95 86 73 69 80 76 74 91 76 81 82 90 94 88 85 91 78 81 71 70 90 94 98 90 89 91 80 70 84 99 99 98 98 94
75 76 75 68 64 71 75 96 92 93 95 93 87 77 71 69 66 83 80 83 82 89 94 90 89 94 93 81 96 65 95 86 96 92 94 97 82 95 97 96 99 99 98 81
78 78 76 74 64 70 75 96 96 92 97 88 92 75 63 54 62 66 88 95 82 79 82 96 97 96 80 97 97 93 81 77 96 98 96 92 89 87 89 96 96 79 69 76
78 77 75 73 67 66 69 94 97 91 90 93 80 48 53 48 50 63 68 72 73 72 80 89 96 96 74 90 82 89 86 77 87 96 90 85 87 93 90 73 62 60 53 55
76 75 76 73 69 66 76 88 95 93 98 97 90 66 50 46 58 57 60 68 76 86 86 92 94 81 84 84 87 91 79 89 97 98 100 92 94 95 80 76 71 59 58 61
77 76 76 74 72 70 92 100 93 91 93 90 90 80 71 60 58 61 64 70 74 80 84 87 84 62 83 97 97 92 90 83 93 98 93 97 97 97 77 62 53 51 56 59
77 76 80 73 72 92 98 97 96 91 92 99 92 89 82 56 63 73 74 66 85 79 83 85 81 79 80 96 98 96 75 78 82 80 82 92 96 70 52 50 50 52 54 61
77 79 73 72 72 78 88 84 91 90 96 95 92 90 92 66 85 88 81 89 87 86 86 83 83 80 84 98 80 62 56 58 64 61 56 58 54 51 57 58 54 63 72 73
79 78 76 90 92 91 93 87 88 96 98 96 93 83 98 91 86 86 87 88 98 86 96 90 84 95 99 95 76 64 61 63 57 53 53 60 64 66 72 75 78 83 86 84
78 86 95 99 93 77 88 96 99 95 97 96 94 87 95 89 95 96 91 91 96 98 94 83 94 98 79 72 70 69 70 68 74 74 87 84 78 79 81 84 84 90 94 94
92 99 96 93 85 93 97 99 98 93 97 96 93 88 90 82 95 96 90 98 95 94 96 93 97 97 92 66 63 60 61 60 67 69 75 76 77 78 81 86 84 82 85 95
90 91 96 98 99 100 99 98 95 96 82 84 93 85 82 98 94 99 96 91 93 90 96 91 95 98 77 73 74 74 73 71 69 69 78 83 82 83 83 86 91 94 94 96
97 99 100 100 100 99 99 93 94 88 92 92 92 96 93 95 90 94 94 83 94 95 90 97 98 86 74 74 84 88 83 80 80 82 80 84 88 84 86 97 97 96 98 98
99 99 98 99 96 96 92 92 92 93 97 93 95 96 95 98 93 89 86 89 94 89 94 98 97 94 92 86 83 87 96 94 94 95 95 96 96 98 97 97 97 97 97 97
99 99 98 98 95 99 100 100 99 98 98 94 95 96 91 92 96 90 85 94 96 94 99 99 97 92 90 92 92 95 95 96 96 97 97 98 97 97 98 98 97 96 97 96
100 99 99 99 97 99 100 100 99 98 97 96 93 93 93 84 83 96 93 93 97 99 98 97 94 96 96 96 94 94 94 94 95 95 96 96 94 96 95 96 95 96 95 95
99 99 100 99 100 100 100 98 100 100 98 98 96 82 85 91 86 80 96 100 99 97 98 96 93 95 96 95 90 92 89 92 95 95 94 92 94 92 93 96 93 92 92 94

GFSNW_sfc_rhum_108.txt.gz
RH
74 70 69 67 67 71 81 95 93 70 77 93 99 91 50 50 45 45 54 63 72 86 96 95 86 98 76 47 63 81 71 99 94 74 66 75 71 73 68 85 88 96 98 98
75 74 69 65 68 76 92 93 82 72 77 94 94 63 51 49 50 48 54 65 68 80 99 98 96 91 65 55 63 86 79 88 89 74 79 80 83 64 64 88 94 99 97 99
72 72 68 65 68 73 90 95 96 83 89 87 71 67 64 64 48 50 46 53 60 77 93 93 87 82 64 56 65 77 82 88 89 94 80 87 100 86 87 91 99 97 98 99
71 72 68 64 67 73 92 94 92 77 95 93 76 63 66 72 69 44 45 53 54 67 87 80 83 70 62 66 68 80 87 98 96 98 98 94 97 100 98 99 99 93 100 97
70 68 67 65 67 72 97 94 88 74 65 69 64 69 67 65 46 46 47 55 49 56 70 74 72 63 77 91 84 85 83 99 100 99 96 84 98 97 90 98 100 99 93 97
68 68 67 66 67 78 95 84 77 78 78 67 72 74 46 47 53 49 39 47 56 63 59 56 54 54 60 70 78 89 85 91 97 96 88 90 86 99 92 94 90 88 94 98
68 67 67 68 67 79 97 95 86 90 91 78 59 43 40 51 55 56 56 55 64 50 48 59 61 66 62 68 71 71 82 68 83 88 94 89 99 94 81 86 86 80 89 91
69 69 70 68 69 73 92 97 93 95 96 76 64 58 59 56 60 59 63 59 51 60 65 78 75 80 68 64 59 56 61 74 96 97 93 97 75 75 90 91 97 93 89 93
75 73 72 70 73 72 95 97 96 94 94 89 67 67 64 72 76 69 67 60 65 68 83 90 94 95 72 83 68 51 61 70 97 98 88 95 89 76 66 68 92 97 87 89
76 73 76 72 75 74 94 97 92 93 95 82 74 80 78 71 75 81 79 76 79 75 96 97 90 92 67 95 86 81 84 89 90 92 89 84 88 79 66 80 98 98 92 92
76 74 75 73 75 75 92 99 97 92 96 87 83 78 86 84 85 94 80 81 86 94 94 92 90 92 86 90 72 79 91 97 94 88 84 88 87 77 82 98 99 98 95 84
78 78 73 69 73 74 78 99 97 96 95 82 93 82 69 70 72 86 89 87 90 93 94 94 93 93 95 95 97 78 95 90 93 90 95 97 98 99 99 98 98 98 92 79
81 78 73 69 69 73 80 99 98 95 98 92 91 73 63 69 70 70 90 93 86 83 87 97 98 95 91 98 98 91 94 82 96 94 97 95 97 96 94 92 89 76 66 81
80 79 77 71 69 71 80 96 97 89 91 97 85 57 64 57 65 72 74 75 81 82 89 91 98 94 78 94 91 94 93 83 84 97 94 91 90 94 83 72 63 61 63 66
78 77 74 72 69 68 84 95 96 93 97 100 92 74 58 53 60 64 71 74 82 91 88 95 93 86 86 89 94 93 83 97 98 95 99 93 96 97 81 76 75 68 70 76
80 75 76 74 73 78 94 95 95 96 96 93 95 83 67 64 63 64 70 76 83 87 87 89 88 74 84 97 92 94 92 84 92 97 95 95 98 99 85 67 63 64 68 70
80 80 77 75 76 96 96 97 96 93 96 98 97 90 84 64 67 81 80 74 90 82 88 90 87 84 85 99 99 93 84 78 82 86 86 92 87 74 61 59 63 71 74 77
78 78 75 73 74 75 83 88 92 92 96 96 92 88 94 76 87 89 90 92 92 89 89 88 84 84 95 98 87 73 72 73 77 77 62 63 64 66 67 65 69 76 77 77
78 76 79 90 94 94 88 84 87 97 96 95 96 96 96 90 90 92 93 94 98 91 95 92 88 98 99 98 83 69 67 72 60 58 58 64 74 79 80 78 78 86 89 86
79 89 92 99 96 78 89 92 94 96 99 97 92 94 95 92 97 97 92 96 97 98 94 89 94 98 98 94 72 74 79 77 74 85 82 80 84 84 85 93 92 90 91 95
95 98 99 92 81 93 94 93 95 97 98 97 88 93 91 89 95 96 91 97 97 97 97 93 98 96 93 70 68 69 70 72 77 79 84 82 80 85 90 87 83 83 85 98
90 95 96 95 93 98 99 97 94 91 92 91 97 92 87 95 95 97 96 96 94 94 97 93 99 99 83 76 76 77 79 78 82 79 84 86 83 83 84 86 92 95 95 97
97 99 99 97 97 97 99 99 96 99 94 95 94 98 95 96 95 94 95 89 96 95 94 96 98 92 81 80 83 89 83 82 83 86 84 83 86 84 87 97 98 98 98 100
98 98 98 95 98 92 95 94 93 91 96 94 97 98 95 98 93 90 83 88 94 92 95 94 99 94 92 88 84 87 97 95 95 96 96 96 96 100 98 98 98 97 96 97
99 99 98 98 94 90 98 98 99 99 96 94 95 96 92 95 94 91 88 93 99 93 96 99 98 94 93 95 94 96 96 97 97 98 97 99 99 98 100 100 98 96 98 98
93 92 98 98 99 99 100 100 98 99 97 97 94 93 90 87 90 95 87 93 96 97 99 99 95 96 97 96 95 95 96 96 97 97 97 97 98 98 97 98 98 98 97 98
94 98 99 99 99 100 100 99 99 98 95 98 97 85 82 88 89 81 97 96 98 99 99 98 95 95 96 95 94 97 96 95 95 96 97 94 93 97 96 97 94 95 93 96

GFSNW_sfc_rhum_114.txt.gz
RH
88 87 86 86 81 80 83 95 98 80 84 96 98 82 54 50 49 50 57 65 71 82 92 95 98 92 76 55 61 72 74 100 96 74 52 75 86 86 82 97 91 97 98 98
88 87 85 82 81 81 93 94 93 79 80 97 95 65 55 51 53 49 57 66 72 81 92 81 94 94 72 71 57 89 95 91 95 76 78 81 88 79 69 84 99 97 97 99
88 88 86 85 80 77 85 92 98 92 90 87 71 70 63 62 52 54 51 56 68 79 84 85 88 93 68 59 59 62 80 99 99 96 98 98 94 93 92 96 97 96 95 97
87 87 88 82 78 80 86 92 91 78 98 93 74 69 69 69 64 48 45 63 53 61 85 79 97 86 70 59 64 69 90 99 99 98 96 89 92 99 93 90 90 91 98 94
88 87 82 79 79 81 86 97 84 77 82 73 67 71 71 66 56 45 47 56 58 58 66 67 72 68 74 75 74 73 86 98 100 99 100 96 93 95 85 94 97 97 92 94
86 80 81 82 81 77 85 85 72 76 75 70 69 76 72 66 46 61 48 56 62 63 60 62 62 60 64 61 70 91 98 100 98 97 78 78 80 98 97 89 91 93 84 95
80 77 79 80 78 78 86 84 75 84 89 66 60 63 52 54 51 57 61 58 62 56 66 72 71 79 75 75 70 76 97 99 99 97 94 90 94 80 80 84 88 90 84 90
76 74 75 78 80 81 93 96 79 82 91 65 58 62 64 62 61 62 66 64 57 73 80 82 83 81 73 86 74 92 83 99 98 98 93 95 85 87 92 92 95 93 95 94
78 81 83 83 82 79 94 100 88 83 84 78 59 67 62 70 69 64 69 68 75 76 88 91 98 98 83 84 83 69 80 83 99 96 87 96 92 81 79 79 91 88 83 89
80 82 84 84 80 78 90 99 92 83 96 82 71 70 72 73 75 75 78 82 86 80 93 96 96 95 81 98 92 96 86 91 96 96 90 91 88 92 91 90 99 88 85 91
82 84 86 84 81 80 87 99 96 81 93 85 86 77 83 82 75 70 70 80 86 93 91 87 94 97 90 99 96 93 87 94 93 94 90 89 95 89 82 98 94 91 80 83
83 86 86 84 79 76 78 97 95 92 92 85 92 83 76 64 59 86 93 86 93 92 96 97 96 98 96 92 98 90 95 89 93 95 94 98 96 96 94 92 97 94 81 80
83 84 82 83 80 78 81 98 97 92 94 84 82 78 80 73 73 72 90 94 88 88 90 97 99 89 93 98 98 95 98 83 94 92 96 95 94 90 90 82 89 87 78 88
81 84 85 82 78 78 82 97 98 92 92 95 86 62 69 75 71 73 75 84 87 90 94 94 98 97 86 98 93 88 91 90 92 96 95 94 94 88 86 76 73 77 76 76
78 81 80 79 78 80 88 97 99 97 89 94 79 74 70 70 72 77 80 82 88 94 88 96 92 92 91 92 92 92 94 96 97 98 91 94 97 86 79 82 83 80 82 87
78 76 77 76 74 65 73 92 86 98 93 91 94 83 77 79 79 79 82 86 92 93 90 93 90 82 87 98 87 98 93 90 92 97 92 93 96 82 77 80 80 81 85 85
80 76 77 79 80 92 94 90 92 92 94 94 91 91 86 72 75 86 89 85 95 90 94 93 92 89 93 99 93 95 85 84 88 84 78 83 77 86 78 81 82 81 82 78
79 77 76 76 79 82 92 96 91 88 95 89 95 93 87 76 84 86 96 92 93 92 92 92 89 91 94 94 98 85 79 78 82 70 71 72 74 75 79 76 76 78 81 79
75 74 71 82 92 97 98 84 86 96 89 96 96 95 97 83 94 95 96 94 96 92 97 91 91 99 97 95 98 84 84 81 74 66 67 70 74 80 79 79 80 84 85 84
71 82 83 93 93 78 81 88 92 94 96 93 97 97 96 92 94 99 96 97 98 98 95 92 96 98 92 84 87 86 86 78 75 83 87 83 83 83 86 88 86 86 90 95
93 99 98 95 82 91 92 96 94 96 95 94 91 91 94 94 96 97 94 97 98 97 97 93 99 91 91 85 79 78 78 81 84 84 78 73 76 83 85 85 83 85 88 97
88 93 92 94 87 96 87 90 82 88 90 98 98 95 93 99 94 96 98 96 95 99 98 98 100 96 95 87 79 78 78 82 85 82 85 84 80 81 84 89 93 95 94 96
93 90 94 92 98 94 87 98 94 97 98 98 100 99 97 95 96 98 93 94 97 96 98 97 93 96 87 86 80 83 84 84 85 87 85 85 89 87 88 96 98 97 98 100
96 94 100 93 91 83 96 96 95 94 97 97 99 99 79 99 91 98 91 90 94 95 97 96 98 95 94 89 87 90 98 96 96 96 96 95 94 99 98 98 99 98 98 100
98 92 92 93 96 96 96 95 97 96 99 97 96 96 93 99 97 86 93 98 98 96 92 95 98 94 94 95 94 95 96 97 97 98 97 99 99 96 100 100 99 97 98 98
91 86 97 97 99 99 99 100 97 97 98 97 93 95 93 94 93 96 87 78 96 90 99 99 98 97 96 96 95 95 95 95 96 97 96 97 98 97 97 99 98 100 98 99
89 98 99 99 94 99 100 100 99 98 94 99 96 91 87 91 92 95 94 86 94 98 99 98 97 94 96 96 96 96 95 96 96 97 97 97 96 97 97 97 95 96 95 98

GFSNW_sfc_rhum_117.txt.gz
RH
79 77 81 91 87 82 81 99 99 95 80 98 94 81 48 51 49 47 54 62 65 75 89 80 96 83 68 51 56 62 64 97 84 60 45 60 62 69 84 92 84 90 93 96
78 78 90 88 85 74 94 99 100 88 83 97 91 64 54 50 49 50 57 65 66 75 88 79 88 87 66 62 50 72 83 88 85 55 62 51 70 69 82 92 97 99 95 97
78 89 89 86 78 72 85 96 99 99 97 86 71 67 59 59 47 50 52 62 69 73 78 76 81 85 64 59 50 64 73 89 95 86 94 95 89 87 94 98 96 92 90 92
87 89 87 82 72 73 92 98 94 75 95 96 76 71 72 64 64 47 45 56 51 54 75 69 84 80 66 52 58 64 84 98 99 99 98 84 93 96 88 87 80 78 94 89
88 87 82 76 82 85 97 99 82 80 68 74 69 74 71 58 48 47 49 56 50 53 56 57 60 56 59 61 58 64 86 96 100 97 100 96 94 96 79 90 87 92 85 91
87 84 80 80 86 81 98 91 73 74 75 74 70 80 67 58 54 58 42 50 54 57 54 55 52 53 55 49 54 70 93 95 94 87 95 83 89 97 96 87 86 81 76 90
84 81 80 84 90 84 85 79 84 91 87 63 58 62 57 53 48 62 56 56 54 51 61 63 66 72 70 69 65 58 94 88 92 86 97 93 98 90 88 81 87 87 82 85
89 87 88 90 87 80 88 92 81 89 78 56 64 59 62 61 61 63 61 54 53 68 66 69 72 71 72 80 72 70 78 94 91 96 88 96 94 90 89 87 91 88 90 88
89 87 87 86 82 76 88 97 88 81 76 72 50 60 56 62 61 58 66 63 70 68 70 77 83 86 73 78 91 78 84 81 92 93 91 93 91 91 86 79 80 83 78 83
83 83 86 88 80 75 86 97 93 80 95 77 62 65 63 63 58 62 65 74 72 66 78 81 79 80 72 86 80 87 74 80 87 90 89 88 84 94 96 89 90 83 76 76
84 87 88 84 78 76 81 97 92 78 91 86 78 70 74 68 58 63 69 72 79 79 79 67 78 82 78 89 86 86 76 87 86 88 91 92 90 96 82 91 92 81 78 77
87 86 84 81 78 74 72 92 90 90 91 86 83 77 72 53 50 79 82 76 86 75 81 80 81 85 85 86 94 77 86 79 84 90 90 95 98 95 97 90 86 85 79 72
86 85 84 81 77 73 74 96 92 88 86 80 77 80 74 65 69 68 85 88 81 82 79 85 91 79 76 88 89 90 89 83 91 95 96 93 92 94 82 84 91 79 71 73
87 85 84 82 77 76 80 95 97 86 89 93 82 62 74 70 66 74 75 83 82 81 77 82 87 78 77 90 86 80 87 87 85 94 94 89 88 89 79 74 73 72 68 68
85 84 83 82 78 78 81 93 98 90 86 92 77 71 70 68 74 77 76 78 79 75 75 84 79 78 81 88 80 80 84 90 92 92 89 86 92 91 77 76 76 72 71 76
83 81 74 70 66 58 70 95 77 92 90 88 88 79 81 77 78 79 79 78 81 77 74 82 75 71 78 87 86 93 92 94 96 93 89 93 91 80 70 73 73 70 70 67
81 80 84 83 83 89 95 87 87 90 90 92 89 94 81 70 74 80 81 80 86 74 80 78 75 77 83 85 82 92 94 94 86 79 79 86 69 74 67 69 70 70 65 64
85 86 81 79 78 81 89 96 88 83 91 84 94 97 89 73 79 83 86 82 79 81 81 80 74 80 78 91 90 78 74 76 78 81 74 67 72 71 72 67 66 70 69 68
72 68 66 84 93 98 96 85 82 93 86 91 90 91 94 80 91 90 88 81 87 84 86 76 80 90 87 92 88 80 78 72 69 66 68 68 69 70 69 69 71 72 76 75
70 82 80 99 99 81 75 85 90 92 92 89 93 86 96 84 93 95 92 91 88 89 87 81 91 90 88 82 79 79 78 68 66 74 79 74 76 75 76 77 75 74 80 87
93 97 98 95 82 88 90 93 91 91 89 83 84 82 92 89 90 94 88 90 91 91 92 85 92 82 89 76 75 73 69 67 71 69 67 66 68 74 76 76 74 75 78 87
84 91 92 90 91 92 87 91 84 83 82 91 90 86 90 98 88 91 93 92 88 94 91 95 93 84 86 77 80 76 74 74 75 70 73 72 70 70 73 76 81 84 86 90
88 89 93 88 93 92 89 97 92 96 94 96 96 97 95 90 94 93 85 91 93 91 97 91 84 88 84 79 75 77 74 76 76 78 76 76 79 77 80 93 94 93 95 96
95 91 98 92 86 90 91 88 90 90 93 98 96 97 90 95 89 95 92 88 90 89 96 87 85 94 93 84 82 84 96 95 95 95 93 94 93 96 95 95 95 95 95 96
96 88 97 96 96 95 94 92 93 96 93 93 92 90 85 96 93 88 88 93 90 86 87 86 90 93 92 94 90 94 95 96 96 94 93 95 95 93 96 96 94 88 91 88
87 90 95 95 97 99 98 98 98 96 94 93 88 89 92 93 90 90 88 81 88 85 88 92 93 96 95 95 93 94 94 94 95 93 92 93 95 94 92 94 93 95 92 91
87 98 98 98 96 97 99 99 98 97 92 94 87 91 86 86 90 91 85 89 87 93 96 94 94 94 95 95 94 94 94 94 93 93 91 91 91 93 88 88 88 89 87 94